THORAD DELTA 1 DEB, 37148

Orbit data source: Space-Track

THORAD DELTA 1 DEB, 37148 is space debris in SSO originally from a launch on Fri, 15 Nov 1974 UTC launched from the Air Force Western Test Range (AFWTR). Debris objects in space refer to the collection of defunct objects orbiting the Earth. Examples of debris include non-operational satellites, rocket bodies, and fragments generated from explosions, collisions, or faulty payload assembly.

Loading next visibility...
Identifier
37148, 1974-089FH
Orbit
SSO
Country
Flag of USUS
Related business
Manufacturer
Unknown
Mission
Spacecraft
Bus & Motor
Unknown
Mass
Unknown
Launch date (UTC)
1974-11-15 (51 years ago)
Launch vehicle
Unknown
Launch site
Air Force Western Test Range (AFWTR)
Object type
Payload
Rocket body
Debris
Shape & HBR
Unknown shape, 0.1 m
Radar Cross Section
Small (<0.1 m²)

Expand to show TLE details & history
Last TLE update: 18 hours ago

TLE from 18 hours ago
0 THORAD DELTA 1 DEB
1 37148U 74089FH  25286.25920376  .00023428  00000-0  10199-1 0  9998
2 37148 101.7146  31.9202 0029691 114.0923 301.6973 14.23751563761403
Epoch: 2025-10-13T06:13Z
TLE epoch observation values (Epoch: 2025-10-13T06:13:15.204Z)
Latitude
53.90312°
Longitude
-99.88983°
Altitude
810.231 km
Speed
7.459 km/s
True Right ascension
01h 01m 57s
True Declination
53° 44' 26"
Sunlit
Object was in full shadow at epoch
Visualization orbit readout
Latitude
Unknown
Longitude
Unknown
Altitude
Unknown
Speed
Unknown
Apparent Right ascension
Unknown
Apparent Declination
Unknown
Sunlit
N/A
Visualization observer readout
Local Sidereal Time
18:27:08
Azimuth
Unknown
Elevation
Unknown
Doppler factor
Unknown
Orbital elements
Apogee altitude
831.357 km
Perigee altitude
788.672 km
Semi-major axis
7,188.152 km
Eccentricity
0.00297
Inclination
101.7146°
RAAN
31.9202°
Arg. of periapsis
114.0923°
True anomaly
301.40725°
Mean anomaly
301.6973°
Eccentric anomaly
301.55233°
Mean motion
3.56137 °/min
Orbital period
101.08 mins
BSTAR
0.010199
Loading maneuver chart data...
Computing Atmospheric mass density...

Documentation

Showing up to 5 results
|